, SD

(GMT )
Rapid City

Weather History for KRAP - June, 2014

Change the Weather History Date:

Saturday, June 28, 2014

  Actual Average Record
Temperature  
Mean Temperature 63 °F 69 °F  
Max Temperature 72 °F 83 °F 108 °F (2002)
Min Temperature 54 °F 55 °F 40 °F (1985)
Degree Days  
Heating Degree Days 2 1  
Month to date heating degree days 126 96  
Since 1 June heating degree days 126 96  
Since 1 July heating degree days 7765 7150  
Cooling Degree Days 0 5  
Month to date cooling degree days 22 72  
Year to date cooling degree days 42 87  
Since 1 June cooling degree days 22 72  
Growing Degree Days 14 (Base 50)    
Moisture  
Dew Point 56 °F    
Average Humidity 75    
Maximum Humidity 93    
Minimum Humidity 57    
Precipitation  
Precipitation 0.26 in 0.06 in 0.42 in (1997)
Month to date precipitation 5.25 2.42  
Year to date precipitation 10.64 9.11  
Snow  
Snow 0.00 in 0.00 in 0.00 in ()
Month to date snowfall 0.0 0.0  
Since 1 June snowfall 0.0 0.0  
Since 1 July snowfall 63.8 41.1  
Snow Depth 0.00 in    
Sea Level Pressure  
Sea Level Pressure 29.69 in    
Wind  
Wind Speed 8 mph (West)    
Max Wind Speed 22 mph    
Max Gust Speed 30 mph    
Visibility 9 miles    
Events Rain , Thunderstorm    
T = Trace of Precipitation, MM = Missing Value Source: NWS Daily Summary

Daily Weather History Graph

Daily Weather History Graph

Search for Another Location

Airport or City:

Trip Planner

Search our weather history database for the weather conditions in past years. The results will help you decide how hot, cold, wet, or windy it might be!

Date:

Astronomy

Jun. 28, 2014 Rise Set
Actual Time 5:11 AM MDT 8:39 PM MDT
Civil Twilight 4:35 AM MDT 9:15 PM MDT
Nautical Twilight 3:47 AM MDT 10:03 PM MDT
Astronomical Twilight 2:46 AM MDT 11:03 PM MDT
Moon 6:41 AM MDT 9:20 PM MDT
Length of Visible Light 16h 40m
Length of Day
15h 27m
New Moon, 2% of the Moon is Illuminated
Jun 28
New Moon
Jul 5
First Quarter
Jul 12
Full
Jul 18
Last Quarter
Jul 26
New

Hourly Weather History & Observations

Time (MDT) Temp. Dew Point Humidity Pressure Visibility Wind Dir Wind Speed Gust Speed Precip Events Conditions
12:19 AM 57.9 °F 55.9 °F 93% 29.67 in 10.0 mi WNW 4.6 mph - N/A   Mostly Cloudy
12:52 AM 57.9 °F 55.9 °F 93% 29.60 in 10.0 mi West 6.9 mph - N/A   Mostly Cloudy
1:52 AM 57.9 °F 55.9 °F 93% 29.55 in 7.0 mi WNW 8.1 mph - N/A   Clear
2:52 AM 59.0 °F 55.0 °F 87% 29.55 in 10.0 mi NW 8.1 mph - N/A   Clear
3:52 AM 60.1 °F 55.9 °F 86% 29.56 in 10.0 mi NW 16.1 mph - N/A   Mostly Cloudy
4:52 AM 61.0 °F 55.9 °F 83% 29.58 in 10.0 mi NW 16.1 mph - N/A   Overcast
5:52 AM 59.0 °F 55.9 °F 90% 29.62 in 5.0 mi NW 15.0 mph - 0.01 in Rain Rain
6:52 AM 59.0 °F 55.9 °F 90% 29.64 in 10.0 mi NW 17.3 mph - 0.05 in Rain Light Rain
7:52 AM 61.0 °F 57.0 °F 87% 29.63 in 10.0 mi West 6.9 mph - 0.00 in   Overcast
8:52 AM 63.0 °F 57.0 °F 81% 29.65 in 10.0 mi West 8.1 mph - N/A   Overcast
9:52 AM 64.0 °F 57.0 °F 78% 29.66 in 10.0 mi West 5.8 mph - 0.03 in   Overcast
10:52 AM 66.9 °F 57.0 °F 70% 29.68 in 10.0 mi NW 6.9 mph - N/A   Scattered Clouds
11:52 AM 68.0 °F 57.9 °F 70% 29.69 in 10.0 mi South 4.6 mph - N/A   Overcast
12:29 PM 66.9 °F 57.0 °F 70% 29.73 in 10.0 mi SSW 4.6 mph - 0.00 in Thunderstorm Mostly Cloudy
12:52 PM 64.9 °F 57.9 °F 78% 29.68 in 10.0 mi SSE 9.2 mph - 0.00 in Thunderstorm Mostly Cloudy
1:03 PM 64.0 °F 59.0 °F 84% 29.75 in 3.0 mi SSW 6.9 mph - 0.02 in Rain , Thunderstorm Heavy Thunderstorms and Rain
1:11 PM 63.0 °F 59.0 °F 87% 29.74 in 2.5 mi Variable 5.8 mph - 0.05 in Rain , Thunderstorm Thunderstorms and Rain
1:23 PM 64.0 °F 59.0 °F 84% 29.72 in 8.0 mi Variable 3.5 mph - 0.07 in Rain , Thunderstorm Light Thunderstorms and Rain
1:33 PM 69.1 °F 59.0 °F 70% 29.73 in 10.0 mi North 4.6 mph - 0.08 in Thunderstorm Scattered Clouds
1:44 PM 71.1 °F 57.9 °F 63% 29.72 in 10.0 mi NNW 5.8 mph - 0.08 in   Partly Cloudy
1:52 PM 71.1 °F 55.9 °F 59% 29.67 in 10.0 mi Variable 3.5 mph - 0.08 in   Scattered Clouds
2:52 PM 66.9 °F 57.9 °F 73% 29.69 in 10.0 mi NE 5.8 mph - 0.01 in Rain Light Rain
3:52 PM 70.0 °F 54.0 °F 57% 29.67 in 10.0 mi North 11.5 mph - 0.00 in Rain Light Rain
4:04 PM 70.0 °F 55.9 °F 61% 29.73 in 10.0 mi North 9.2 mph - 0.00 in Thunderstorm Scattered Clouds
4:19 PM 70.0 °F 57.0 °F 63% 29.73 in 10.0 mi North 4.6 mph - 0.00 in   Scattered Clouds
4:39 PM 69.1 °F 59.0 °F 70% 29.73 in 10.0 mi South 6.9 mph - 0.00 in Thunderstorm Mostly Cloudy
4:52 PM 69.1 °F 60.1 °F 73% 29.68 in 10.0 mi South 10.4 mph - 0.00 in   Scattered Clouds
5:12 PM 71.1 °F 57.9 °F 63% 29.73 in 10.0 mi ESE 4.6 mph - N/A Thunderstorm Partly Cloudy
5:52 PM 66.0 °F 60.1 °F 81% 29.71 in 10.0 mi SSW 8.1 mph - N/A Thunderstorm Thunderstorm
6:08 PM 60.1 °F 53.1 °F 78% 29.78 in 1.0 mi West 11.5 mph 29.9 mph 0.05 in Rain , Thunderstorm Heavy Thunderstorms and Rain
6:15 PM 62.1 °F 54.0 °F 75% 29.74 in 3.0 mi Variable 3.5 mph - 0.08 in Rain , Thunderstorm Light Thunderstorms and Rain
6:39 PM 64.0 °F 55.0 °F 73% 29.73 in 10.0 mi South 6.9 mph - 0.08 in   Mostly Cloudy
6:52 PM 63.0 °F 53.1 °F 70% 29.70 in 10.0 mi SW 3.5 mph - 0.08 in   Scattered Clouds
7:52 PM 64.9 °F 55.9 °F 73% 29.73 in 10.0 mi South 4.6 mph - N/A   Partly Cloudy
8:52 PM 60.1 °F 48.9 °F 67% 29.75 in 10.0 mi NNW 10.4 mph - N/A   Clear
9:52 PM 57.0 °F 51.1 °F 81% 29.80 in 10.0 mi NW 4.6 mph - N/A   Clear
10:52 PM 55.0 °F 50.0 °F 83% 29.81 in 10.0 mi Calm Calm - N/A   Clear
11:52 PM 59.0 °F 48.0 °F 67% 29.80 in 10.0 mi SW 8.1 mph - N/A   Clear